Погода в Среднем

Украина / Закарпатская область     48°32′20″N   22°30′25″E
темп.,
°C
ветер,
м/с
пор.,
м/с
влажн.,
%
обл.,
%
осадки,
мм/ч
давл.,
гПа
погр.,
м
23 октября, сб
сб2300:00+10юз269181 0.2 1016224
03:00+8зюз23935 0.4 101741
06:00+7ссв119164 0.0 101830
09:00+7ссз11695 0.0 102114
12:00+12ссз6742100 0.0 10221413
15:00+12з454190 0.0 10231819
18:00+10з224679 0.0 102331
21:00+8з236082 0.0 102678
24 октября, вс
вс2400:00+5ссз23685 0.0 102836
03:00+4с33745 0.0 102943
06:00+4ссз22796 0.0 103027
09:00+7сз23644 0.0 1031105
12:00+10ссз45485 0.0 10321299
15:00+11ссз45415 0.0 10321502
18:00+8ссз33535 0.0 103255
21:00+5св2263100 0.0 103225
25 октября, пн
пн2500:00+4св22675 0.0 103313
03:00+3всв22715 0.0 103311
06:00+3всв22705 0.0 103312
09:00+3в226525 0.0 103228
12:00+9ююв23445 0.0 1032555
15:00+12ююв23365 0.0 1030888
18:00+9вюв22440 0.0 102815
21:00+7всв22530 0.0 102816
26 октября, вт
вт2600:00+6всв22560 0.0 102813
03:00+5всв11570 0.0 102710
06:00+4всв11600 0.0 102710
09:00+5в11570 0.0 102610
12:00+11ююв2239100 0.0 1025486
15:00+13ююв2235100 0.0 1024746
18:00+10ююв0044100 0.0 102310
21:00+8св1150100 0.0 102410
27 октября, ср
ср2700:00+6св1157100 0.0 102410
03:00+5св1159100 0.0 102510
06:00+4св116594 0.0 102510
09:00+4св116456 0.0 102611
12:00+11з11425 0.0 1026450
15:00+14зсз22330 0.0 1025919
18:00+10з22455 0.0 102512
21:00+8св22618 0.0 102621